TimeCDT,TemperatureF,Dew PointF,Humidity,Sea Level PressureIn,VisibilityMPH,Wind Direction,Wind SpeedMPH,Gust SpeedMPH,PrecipitationIn,Events,Conditions,WindDirDegrees,DateUTC
12:53 AM,73.0,71.1,93,30.19,9.0,Calm,Calm,-,N/A,,Clear,0,2013-08-26 05:53:00
1:53 AM,72.0,70.0,93,30.18,8.0,Calm,Calm,-,N/A,,Partly Cloudy,0,2013-08-26 06:53:00
2:53 AM,72.0,70.0,93,30.17,9.0,Calm,Calm,-,N/A,,Clear,0,2013-08-26 07:53:00
3:53 AM,72.0,70.0,93,30.17,8.0,Calm,Calm,-,N/A,,Clear,0,2013-08-26 08:53:00
4:53 AM,73.0,69.1,87,30.18,10.0,ENE,3.5,-,N/A,,Clear,60,2013-08-26 09:53:00
5:53 AM,71.1,68.0,90,30.18,10.0,Calm,Calm,-,N/A,,Clear,0,2013-08-26 10:53:00
6:53 AM,71.1,66.9,87,30.19,10.0,Calm,Calm,-,N/A,,Clear,0,2013-08-26 11:53:00
7:53 AM,73.0,66.0,79,30.20,10.0,East,3.5,-,N/A,,Clear,100,2013-08-26 12:53:00
8:53 AM,75.9,66.0,71,30.21,10.0,East,8.1,-,N/A,,Clear,100,2013-08-26 13:53:00
9:53 AM,79.0,66.9,66,30.23,10.0,ESE,5.8,-,N/A,,Clear,110,2013-08-26 14:53:00
10:53 AM,82.0,66.9,60,30.23,10.0,ESE,6.9,-,N/A,,Clear,120,2013-08-26 15:53:00
11:53 AM,84.9,66.9,55,30.23,10.0,East,9.2,18.4,N/A,,Clear,80,2013-08-26 16:53:00
12:53 PM,86.0,66.9,53,30.21,10.0,ENE,9.2,-,N/A,,Clear,60,2013-08-26 17:53:00
1:53 PM,87.1,66.0,49,30.19,10.0,East,6.9,-,N/A,,Clear,80,2013-08-26 18:53:00
2:53 PM,88.0,64.9,46,30.16,10.0,East,6.9,-,N/A,,Partly Cloudy,80,2013-08-26 19:53:00
3:53 PM,88.0,64.0,45,30.14,10.0,East,5.8,-,N/A,,Clear,90,2013-08-26 20:53:00
4:53 PM,88.0,63.0,43,30.13,10.0,East,9.2,-,N/A,,Clear,90,2013-08-26 21:53:00
5:53 PM,86.0,63.0,46,30.13,10.0,East,6.9,32.2,N/A,,Clear,80,2013-08-26 22:53:00
6:53 PM,82.9,64.0,53,30.12,10.0,NE,4.6,-,N/A,,Clear,50,2013-08-26 23:53:00
7:53 PM,79.0,64.9,62,30.13,10.0,NE,3.5,-,N/A,,Clear,40,2013-08-27 00:53:00
8:53 PM,72.0,66.9,84,30.14,10.0,Calm,Calm,-,N/A,,Clear,0,2013-08-27 01:53:00
9:53 PM,71.1,66.9,87,30.15,10.0,Calm,Calm,-,N/A,,Clear,0,2013-08-27 02:53:00
10:53 PM,70.0,66.0,87,30.15,10.0,Calm,Calm,-,N/A,,Clear,0,2013-08-27 03:53:00
11:53 PM,69.1,64.9,87,30.16,10.0,Calm,Calm,-,N/A,,Clear,0,2013-08-27 04:53:00